NEWPRT Weather Reports


Display with metric or nautical units.
time (UTC)temp
F
wind
direction
speed
MPH
gust
MPH
rain 1hr
in
rain 24hr
in
rain mn
in
humidity
%
barometer
mb
20260503045203 0 85 0.0 3.0 0.00 0.00 0.00 77 1013.8
20260503044640 0 0 0.0 10.0 0.00 0.00 0.00 77 1013.8
20260503044117 0 98 0.0 10.0 0.00 0.00 0.00 78 1013.7
20260503043554 0 92 3.0 10.0 0.00 0.00 0.00 77 1013.7
20260503043032 0 88 4.0 10.0 0.00 0.00 0.00 75 1013.2
20260503042509 0 109 3.0 9.0 0.00 0.00 0.00 76 1013.3
20260503041945 0 105 6.0 9.0 0.00 0.00 0.00 76 1013.2
20260503041423 0 95 5.0 9.0 0.00 0.00 0.00 75 1013.2
20260503040901 0 105 5.0 9.0 0.00 0.00 0.00 76 1013.3
20260503040336 0 89 4.0 9.0 0.00 0.00 0.00 76 1013.3
20260503035813 0 103 5.0 9.0 0.00 0.00 0.00 75 1013.5
20260503035250 0 103 5.0 7.0 0.00 0.00 0.00 72 1013.6
20260503034727 0 96 4.0 5.0 0.00 0.00 0.00 69 1013.6
20260503034204 0 109 2.0 6.0 0.00 0.00 0.00 67 1013.4
20260503033641 0 131 0.0 6.0 0.00 0.00 0.00 69 1013.7
20260503033118 0 100 0.0 6.0 0.00 0.00 0.00 67 1013.6
20260503032555 0 103 2.0 7.0 0.00 0.00 0.00 64 1013.4
20260503032032 0 114 0.0 7.0 0.00 0.00 0.00 66 1013.5
20260503031510 0 96 0.0 7.0 0.00 0.00 0.00 62 1013.3
20260503030946 0 78 3.0 5.0 0.00 0.00 0.00 64 1013.7
20260503030423 0 0 0.0 0.0 0.00 0.00 0.00 65 1013.8
20260503025900 0 0 0.0 0.0 0.00 0.00 0.00 65 1013.8
20260503025337 0 0 0.0 0.0 0.00 0.00 0.00 66 1013.7
20260503024814 0 0 0.0 1.0 0.00 0.00 0.00 66 1013.9
20260503024251 0 0 0.0 1.0 0.00 0.00 0.00 66 1013.9
20260503023728 0 98 0.0 1.0 0.00 0.00 0.00 66 1013.7
20260503023205 0 98 0.0 4.0 0.00 0.00 0.00 66 1013.8
20260503022642 0 114 1.0 4.0 0.00 0.00 0.00 65 1013.7
20260503022121 0 86 2.0 5.0 0.00 0.00 0.00 64 1013.8
20260503021556 0 78 3.0 5.0 0.00 0.00 0.00 64 1013.7
20260503021033 0 109 2.0 5.0 0.00 0.00 0.00 63 1013.6
20260503020511 0 107 3.0 5.0 0.00 0.00 0.00 61 1013.5
20260503015947 0 102 3.0 4.0 0.00 0.00 0.00 61 1013.5
20260503015424 0 0 0.0 7.0 0.00 0.00 0.00 62 1013.8
20260503014901 0 95 0.0 7.0 0.00 0.00 0.00 61 1013.6
20260503014338 0 102 2.0 7.0 0.00 0.00 0.00 59 1013.5
20260503013815 0 89 1.0 6.0 0.00 0.00 0.00 60 1013.7
20260503013252 0 126 0.0 9.0 0.00 0.00 0.00 60 1013.8
20260503012729 0 85 2.0 9.0 0.00 0.00 0.00 62 1013.8
20260503012206 0 102 5.0 7.0 0.00 0.00 0.00 60 1013.7
20260503011643 0 72 0.0 7.0 0.00 0.00 0.00 62 1013.9
20260503011120 0 67 3.0 7.0 0.00 0.00 0.00 63 1013.9
20260503010557 0 98 3.0 6.0 0.00 0.00 0.00 65 1013.8
20260503010034 0 105 3.0 6.0 0.00 0.00 0.00 65 1013.6
20260503005511 0 93 3.0 7.0 0.00 0.00 0.00 67 1013.8
20260503004948 0 102 1.0 7.0 0.00 0.00 0.00 67 1013.7
20260503004425 0 82 3.0 7.0 0.00 0.00 0.00 69 1013.7
20260503003902 0 123 3.0 7.0 0.00 0.00 0.00 68 1013.8
20260503003339 0 92 3.0 9.0 0.00 0.00 0.00 69 1013.7
20260503002816 0 91 3.0 9.0 0.00 0.00 0.00 68 1013.6
20260503002253 0 99 3.0 8.0 0.00 0.00 0.00 66 1013.8
20260503001730 0 102 2.0 8.0 0.00 0.00 0.00 67 1013.7
20260503001207 0 100 4.0 8.0 0.00 0.00 0.00 66 1013.8
20260503000644 0 114 3.0 8.0 0.00 0.00 0.00 66 1013.9
20260503000121 0 95 4.0 8.0 0.00 0.00 0.00 68 1013.9
20260502235558 0 117 2.0 8.0 0.00 0.00 0.00 66 1013.8
20260502235034 0 107 3.0 9.0 0.00 0.00 0.00 67 1013.8
20260502234512 0 88 1.0 9.0 0.00 0.00 0.00 67 1013.8
20260502233948 0 95 5.0 9.0 0.00 0.00 0.00 68 1013.8
20260502233425 0 91 4.0 9.0 0.00 0.00 0.00 65 1013.7
20260502232902 0 92 5.0 9.0 0.00 0.00 0.00 69 1014.0
20260502232339 0 86 6.0 9.0 0.00 0.00 0.00 71 1014.0
20260502231816 0 67 5.0 9.0 0.00 0.00 0.00 70 1014.1
20260502231253 0 88 3.0 11.0 0.00 0.00 0.00 73 1014.4
20260502230730 0 102 5.0 11.0 0.00 0.00 0.00 73 1014.4
20260502230207 0 96 5.0 10.0 0.00 0.00 0.00 71 1014.6
20260502225645 0 91 5.0 10.0 0.00 0.00 0.00 70 1014.6
20260502225122 0 89 6.0 12.0 0.00 0.00 0.00 69 1014.8
20260502224559 0 86 6.0 12.0 0.00 0.00 0.00 71 1014.9
20260502224035 0 107 3.0 12.0 0.00 0.00 0.00 72 1014.9
20260502223512 0 100 6.0 12.0 0.00 0.00 0.00 68 1015.0
20260502222949 0 93 5.0 12.0 0.00 0.00 0.00 70 1015.2
20260502222426 0 102 5.0 10.0 0.00 0.00 0.00 67 1015.2
20260502221903 0 93 6.0 10.0 0.00 0.00 0.00 66 1015.3
20260502221340 0 78 4.0 10.0 0.00 0.00 0.00 65 1015.3
20260502220817 0 91 5.0 11.0 0.00 0.00 0.00 64 1015.4
20260502220255 0 70 4.0 11.0 0.00 0.00 0.00 64 1015.5
20260502215731 0 92 4.0 11.0 0.00 0.00 0.00 63 1015.4
20260502215208 0 105 6.0 11.0 0.00 0.00 0.00 64 1015.4
20260502214646 0 92 4.0 11.0 0.00 0.00 0.00 64 1015.4
20260502214122 0 98 5.0 9.0 0.00 0.00 0.00 63 1015.5
20260502213600 0 113 5.0 10.0 0.00 0.00 0.00 63 1015.3
20260502213036 0 107 5.0 10.0 0.00 0.00 0.00 64 1015.5
20260502212514 0 124 4.0 10.0 0.00 0.00 0.00 66 1015.6
20260502211950 0 102 4.0 10.0 0.00 0.00 0.00 69 1015.7
20260502211427 0 113 7.0 10.0 0.00 0.00 0.00 69 1015.8
20260502210904 0 93 4.0 10.0 0.00 0.00 0.00 72 1015.8
20260502210341 0 96 4.0 11.0 0.00 0.00 0.00 71 1015.5
20260502205818 0 79 3.0 11.0 0.00 0.00 0.00 72 1015.7
20260502205255 0 106 3.0 9.0 0.00 0.00 0.00 71 1015.8
20260502204732 0 82 3.0 9.0 0.00 0.00 0.00 71 1015.8
20260502204209 0 92 3.0 9.0 0.00 0.00 0.00 70 1015.8
20260502203646 0 103 5.0 7.0 0.00 0.00 0.00 69 1015.9
20260502203123 0 81 4.0 6.0 0.00 0.00 0.00 64 1016.0
20260502202600 0 106 2.0 9.0 0.00 0.00 0.00 65 1015.9
20260502202037 0 77 1.0 9.0 0.00 0.00 0.00 66 1016.0
20260502201514 0 107 3.0 9.0 0.00 0.00 0.00 69 1016.1
20260502200951 0 99 2.0 9.0 0.00 0.00 0.00 70 1016.2
20260502200428 0 84 1.0 9.0 0.00 0.00 0.00 70 1016.1
20260502195905 0 100 2.0 8.0 0.00 0.00 0.00 69 1016.0
20260502195342 0 117 4.0 8.0 0.00 0.00 0.00 69 1016.1
20260502194819 0 85 4.0 8.0 0.00 0.00 0.00 67 1016.2
20260502194256 0 98 3.0 8.0 0.00 0.00 0.00 65 1016.1
20260502193733 0 112 2.0 8.0 0.00 0.00 0.00 64 1016.2
20260502193210 0 105 4.0 8.0 0.00 0.00 0.00 64 1016.2
20260502192649 0 99 4.0 7.0 0.00 0.00 0.00 62 1016.5
20260502192124 0 100 0.0 9.0 0.00 0.00 0.00 63 1016.4
20260502191601 0 96 2.0 9.0 0.00 0.00 0.00 62 1016.5
20260502191038 0 86 0.0 9.0 0.00 0.00 0.00 60 1016.3
20260502190516 0 103 5.0 10.0 0.00 0.00 0.00 60 1016.3
20260502185952 0 91 3.0 10.0 0.00 0.00 0.00 59 1016.5
20260502185429 0 82 1.0 10.0 0.00 0.00 0.00 57 1016.6
20260502184906 0 98 4.0 10.0 0.00 0.00 0.00 58 1016.4
20260502184343 0 86 3.0 8.0 0.00 0.00 0.00 58 1016.7
20260502183820 0 96 0.0 8.0 0.00 0.00 0.00 60 1016.7
20260502183257 0 91 3.0 8.0 0.00 0.00 0.00 60 1016.7
20260502182734 0 72 2.0 7.0 0.00 0.00 0.00 62 1016.7
20260502182211 0 113 0.0 8.0 0.00 0.00 0.00 63 1016.6
20260502181648 0 105 1.0 8.0 0.00 0.00 0.00 63 1016.7
20260502181125 0 92 1.0 6.0 0.00 0.00 0.00 62 1016.8
20260502180602 0 107 2.0 6.0 0.00 0.00 0.00 60 1016.7
20260502170126 0 71 0.0 5.0 0.00 0.00 0.00 64 1016.6
20260502163954 0 266 0.0 4.0 0.00 0.00 0.00 64 1016.5
20260502163431 0 249 0.0 4.0 0.00 0.00 0.00 68 1016.5
20260502162908 0 85 0.0 5.0 0.00 0.00 0.00 68 1016.5
20260502162345 0 82 0.0 5.0 0.00 0.00 0.00 69 1016.5
20260502161823 0 102 0.0 5.0 0.00 0.00 0.00 70 1016.5
20260502161300 0 215 1.0 4.0 0.00 0.00 0.00 71 1016.5
20260502160736 0 252 2.0 3.0 0.00 0.00 0.00 73 1016.5
20260502160213 0 210 0.0 5.0 0.00 0.00 0.00 74 1016.6
20260502151908 0 214 3.0 7.0 0.00 0.00 0.00 79 1016.9
20260502151345 0 246 0.0 4.0 0.00 0.00 0.00 79 1016.9
20260502150823 0 253 0.0 4.0 0.00 0.00 0.00 80 1016.6
20260502150259 0 240 0.0 4.0 0.00 0.00 0.00 80 1016.5
20260502130433 0 280 2.0 7.0 0.00 0.00 0.00 72 1016.6
20260502123739 0 260 0.0 7.0 0.00 0.00 0.00 68 1016.8
20260502123215 0 232 1.0 9.0 0.00 0.00 0.00 69 1016.7
20260502122652 0 256 0.0 9.0 0.00 0.00 0.00 70 1016.7
20260502122129 0 218 2.0 9.0 0.00 0.00 0.00 68 1016.8
20260502121606 0 281 2.0 7.0 0.00 0.00 0.00 69 1016.8
20260502121043 0 259 2.0 7.0 0.00 0.00 0.00 68 1016.7
20260502120520 0 249 1.0 7.0 0.00 0.00 0.00 68 1016.7
20260502115434 0 236 1.0 6.0 0.00 0.00 0.00 70 1016.7
20260502114912 0 231 0.0 8.0 0.00 0.00 0.00 70 1016.7
20260502114348 0 247 1.0 8.0 0.00 0.00 0.00 68 1016.7
20260502113825 0 264 2.0 8.0 0.00 0.00 0.00 71 1016.7
20260502113302 0 221 2.0 8.0 0.00 0.00 0.00 68 1016.8
20260502112739 0 226 4.0 7.0 0.00 0.00 0.00 70 1016.6
20260502112216 0 253 3.0 8.0 0.00 0.00 0.00 69 1016.7
20260502111653 0 207 3.0 8.0 0.00 0.00 0.00 67 1016.8
20260502111130 0 264 2.0 9.0 0.00 0.00 0.00 68 1016.7
20260502110607 0 231 1.0 9.0 0.00 0.00 0.00 68 1016.6
20260502110044 0 215 1.0 9.0 0.00 0.00 0.00 69 1016.7
20260502105522 0 250 3.0 9.0 0.00 0.00 0.00 70 1016.9
20260502104958 0 292 2.0 9.0 0.00 0.00 0.00 71 1016.8
20260502104435 0 225 2.0 9.0 0.00 0.00 0.00 71 1016.8
20260502103912 0 249 1.0 8.0 0.00 0.00 0.00 71 1016.7
20260502103349 0 256 1.0 8.0 0.00 0.00 0.00 69 1016.8
20260502102827 0 239 2.0 8.0 0.00 0.00 0.00 70 1016.8
20260502102306 0 289 1.0 8.0 0.00 0.00 0.00 72 1016.9
20260502101740 0 63 0.0 8.0 0.00 0.00 0.00 72 1016.9
20260502101217 0 98 0.0 7.0 0.00 0.00 0.00 69 1017.0
20260502100654 0 65 1.0 12.0 0.00 0.00 0.00 72 1017.1
20260502100131 0 123 0.0 12.0 0.00 0.00 0.00 69 1017.1
20260502091304 0 344 1.0 9.0 0.00 0.00 0.00 68 1017.5
20260502090740 0 266 0.0 9.0 0.00 0.00 0.00 71 1017.4
20260502090217 0 224 1.0 7.0 0.00 0.00 0.00 71 1017.8
20260502071437 0 280 0.0 6.0 0.00 0.01 0.00 72 1018.4
20260502070914 0 256 2.0 6.0 0.00 0.01 0.00 71 1018.4
20260502070351 0 298 1.0 5.0 0.00 0.01 0.00 73 1018.2
20260502065828 0 273 0.0 5.0 0.00 0.01 0.00 73 1018.2
20260502065306 0 250 1.0 6.0 0.00 0.01 0.00 72 1018.3
20260502064742 0 242 1.0 6.0 0.00 0.01 0.00 70 1018.4
20260502064219 0 301 1.0 8.0 0.00 0.01 0.00 70 1018.3
20260502063656 0 254 2.0 8.0 0.00 0.01 0.00 71 1018.3
20260502063133 0 250 2.0 8.0 0.00 0.01 0.00 71 1018.5
20260502062610 0 114 2.0 11.0 0.00 0.01 0.00 72 1018.6
20260502062047 0 250 0.0 11.0 0.00 0.01 0.00 73 1018.6
20260502061524 0 68 0.0 11.0 0.00 0.01 0.00 70 1018.7
20260502061001 0 243 2.0 9.0 0.00 0.01 0.00 72 1018.4
20260502060438 0 292 2.0 9.0 0.00 0.01 0.00 71 1018.7
20260502055915 0 99 2.0 9.0 0.00 0.01 0.00 72 1018.6
20260502055352 0 103 1.0 9.0 0.00 0.01 0.00 73 1018.6
20260502054829 0 138 1.0 9.0 0.00 0.01 0.00 72 1018.5
20260502054306 0 127 1.0 7.0 0.00 0.01 0.00 73 1018.6
20260502053743 0 232 2.0 9.0 0.00 0.01 0.00 69 1018.7
20260502053220 0 277 1.0 9.0 0.00 0.01 0.00 71 1018.5
20260502052700 0 259 2.0 9.0 0.00 0.01 0.00 72 1018.6
20260502052134 0 266 1.0 9.0 0.00 0.01 0.00 72 1018.6
20260502051611 0 103 0.0 10.0 0.00 0.01 0.00 72 1018.7
20260502051049 0 226 2.0 10.0 0.00 0.01 0.00 72 1018.5
20260502050526 0 259 1.0 10.0 0.00 0.01 0.00 70 1018.5
20260502050002 0 229 2.0 4.0 0.00 0.01 0.00 70 1018.5